Tracking 28126 objects as of 2-Oct-2023
HD Live streaming from Space Station
objects crossing your sky now

STARLINK-4027

Track STARLINK-4027 now!
10-day predictions
STARLINK-4027 is classified as:


NORAD ID: 52601
Int'l Code: 2022-052D
Perigee: 545.9 km
Apogee: 547.9 km
Inclination: 53.2 °
Period: 95.4 minutes
Semi major axis: 6917 km
RCS: Unknown
Launch date: May 14, 2022
Source: United States (US)
Launch site: AIR FORCE EASTERN TEST RANGE (AFETR)
Your satellite tracking list
Your tracking list is empty




NASA's NSSDC Master Catalog

Two Line Element Set (TLE):
1 52601U 22052D   23275.12891899 -.00001722  00000-0 -90123-4 0  9994
2 52601  53.2157 312.5173 0001484  98.4058 261.7103 15.08839984 76932
Source of the keplerian elements: AFSPC